[[{"header":{"parameterUnit":"m.s-1","parameterCategory":2,"la1":30.2991,"la2":30.254,"lo1":-89.0895,"lo2":-89.0444,"dy":0.0017,"dx":0.0017,"nx":28,"ny":28,"refTime":"2025-09-06T03:00:00:Z","depth":"0","parameterNumber":2,"parameterNumberName":"U-component_of_CURRENTS"},"data":[0,0,0,0,0,0,0,0,0,0,0,0,0,0,0,0,0,0,0,0,0,0,0,0,0,0,0,0,0,0,0,0,0,0,0,0,0,0,0,0,0,0,0,0,0,0,0,0,0,0,0,0,0,0,0,0,0,0,-0.1838,-0.1838,0,-0.1824,-0.1824,-0.1824,-0.1817,-0.1817,-0.1817,-0.1817,-0.1731,-0.1729,-0.1727,0,0,0,0,0,0,0,0,0,0,0,0,0,-0.1968,-0.1965,-0.1838,-0.1838,-0.1837,-0.1824,-0.1824,-0.1824,-0.1817,-0.1817,-0.1817,-0.1817,-0.1732,-0.1729,-0.1726,0,0,0,0,0,0,0,0,0,0,0,0,0,-0.1928,-0.1964,-0.1838,-0.1832,-0.1832,-0.1824,-0.1824,-0.1824,-0.1817,-0.1817,-0.1817,-0.1817,-0.1733,-0.1729,-0.1726,-0.1704,0,0,-0.1716,-0.1714,0,0,0,0,0,0,0,0,-0.193,-0.1923,-0.1833,-0.1833,-0.1832,-0.1823,-0.1839,-0.178,-0.1817,-0.1822,-0.1817,-0.1817,-0.1755,-0.175,-0.1748,-0.17,-0.1697,-0.1715,-0.1713,-0.1712,-0.1711,0,0,0,0,0,0,0,-0.1933,-0.1925,-0.1832,-0.1833,-0.1832,-0.1869,-0.1862,-0.1829,-0.1787,-0.1822,-0.1821,-0.182,-0.1754,-0.1751,-0.1746,-0.1695,-0.1715,-0.1712,-0.171,-0.1709,-0.1672,-0.1673,0,0,0,0,0,0,-0.1929,-0.1926,-0.1832,-0.1832,-0.1883,-0.1866,-0.1859,-0.1825,-0.1789,-0.1784,-0.182,-0.182,-0.1757,-0.175,-0.1742,-0.1743,-0.1712,-0.1708,-0.1706,-0.1671,-0.1672,-0.1674,0,0,0,0,0,0,-0.1931,-0.1919,-0.1833,-0.1882,-0.1873,-0.1863,-0.1826,-0.1825,-0.1819,-0.1789,-0.1782,-0.1816,-0.1757,-0.1747,-0.1731,-0.1738,-0.1707,-0.1704,-0.167,-0.1671,-0.1673,-0.1724,0,0,0,0,0,0,-0.1934,-0.1919,-0.1892,-0.188,-0.187,-0.1841,-0.1826,-0.1825,-0.1819,-0.1818,-0.1782,-0.1775,-0.1756,-0.1737,-0.1728,-0.1733,-0.1701,-0.1668,-0.1671,-0.1672,-0.1721,-0.1728,-0.1733,0,0,0,0,0,-0.1938,-0.1897,-0.1889,-0.1879,-0.1831,-0.1842,-0.1841,-0.1835,-0.1819,-0.1827,-0.1807,-0.1776,-0.1744,-0.1735,-0.1724,-0.1728,-0.1667,-0.167,-0.1672,-0.1719,-0.1726,-0.1733,0,0,0,0,0,0,-0.1937,-0.1892,-0.1884,-0.1829,-0.1844,-0.1841,-0.1832,-0.1833,-0.1823,-0.1814,-0.1783,-0.1775,-0.1772,-0.1742,-0.1733,-0.1727,-0.1702,-0.1703,-0.1741,-0.1748,-0.1754,-0.1756,-0.1698,0,0,0,0,0,-0.1924,-0.187,-0.1872,-0.1826,-0.1833,-0.1833,-0.1832,-0.1838,-0.183,-0.1825,-0.1806,-0.1783,-0.1774,-0.1754,-0.1746,-0.1725,-0.1675,-0.1725,-0.1731,-0.1736,-0.1732,-0.1687,-0.1687,-0.1682,-0.1682,-0.1682,0,0,-0.1898,-0.1874,-0.1837,-0.1822,-0.1822,-0.1848,-0.1832,-0.1835,-0.1854,-0.1814,-0.1818,-0.1805,-0.1778,-0.1777,-0.177,-0.1747,-0.1706,-0.1739,-0.1743,-0.1737,-0.1689,-0.1689,-0.1689,-0.1683,-0.1683,-0.1683,0,0,-0.1854,-0.1816,-0.1779,-0.1811,-0.1827,-0.184,-0.1845,-0.1858,-0.186,-0.1867,-0.1854,-0.1844,-0.1817,-0.1809,-0.1796,-0.1822,-0.175,-0.182,-0.1831,-0.1787,-0.1786,-0.1786,-0.1694,-0.1684,-0.1808,-0.1808,-0.1808,0,-0.1825,-0.1788,-0.1779,-0.1801,-0.1819,-0.1841,-0.1858,-0.1877,-0.1887,-0.1874,-0.1876,-0.1847,-0.1834,-0.1818,-0.1845,-0.1833,-0.178,-0.1805,-0.1793,-0.1791,-0.1789,-0.1695,-0.1684,-0.1811,-0.1811,-0.181,-0.181,0,-0.179,-0.1784,-0.1777,-0.1798,-0.183,-0.1843,-0.1892,-0.1908,-0.1907,-0.1912,-0.1902,-0.1893,-0.1865,-0.1873,-0.1868,-0.1853,-0.1809,-0.1815,-0.1771,-0.1792,-0.1692,-0.1679,-0.1815,-0.1814,-0.1813,-0.1812,0,0,-0.1638,-0.1723,-0.1721,-0.1743,-0.1829,-0.1836,-0.1891,-0.1911,-0.1897,-0.1927,-0.1889,-0.1919,-0.19,-0.1887,-0.1878,-0.1853,-0.1802,-0.1833,-0.183,-0.1733,-0.1662,-0.1365,-0.1322,-0.1804,-0.1803,-0.1802,-0.1586,0,-0.1601,-0.1623,-0.1692,-0.1729,-0.1744,-0.1824,-0.1858,-0.1894,-0.1905,-0.1885,-0.1885,-0.1858,-0.1909,-0.1877,-0.1875,-0.1822,-0.1776,-0.1857,-0.1663,-0.1656,-0.1383,-0.13,-0.1062,-0.0826,-0.1574,-0.1571,-0.157,0,-0.1539,-0.1561,-0.1584,-0.1666,-0.1678,-0.1715,-0.1742,-0.1788,-0.1809,-0.1809,-0.1814,-0.1808,-0.1794,-0.1821,-0.1749,-0.1796,-0.1737,-0.1696,-0.1686,-0.1381,-0.1335,-0.0932,-0.0775,-0.0738,-0.155,-0.1551,-0.1553,0,-0.1396,-0.1482,-0.148,-0.1519,-0.1621,-0.1631,-0.168,-0.1732,-0.1729,-0.175,-0.1707,-0.1728,-0.1664,-0.1662,-0.1587,-0.167,-0.1449,-0.1546,-0.1216,-0.1194,-0.0933,-0.0887,-0.0704,-0.1468,-0.1469,-0.1469,-0.147,0,-0.1307,-0.1313,-0.1406,-0.1406,-0.1387,-0.1519,-0.1495,-0.1553,-0.1587,-0.1523,-0.1641,-0.1534,-0.1621,-0.151,-0.1515,-0.126,-0.1379,-0.1169,-0.1103,-0.0938,-0.0897,-0.0807,-0.0873,-0.1461,-0.1463,-0.1465,-0.1466,0,-0.1147,-0.1224,-0.1219,-0.1297,-0.1316,-0.1297,-0.1372,-0.1349,-0.1424,-0.1339,-0.1331,-0.1342,-0.1171,-0.118,-0.1087,-0.1064,-0.085,-0.0806,-0.0568,-0.0475,-0.0151,-0.0228,-0.0093,-0.0134,-0.0431,-0.0422,-0.0415,0,-0.1067,-0.104,-0.1085,-0.1067,-0.1096,-0.1108,-0.1103,-0.1226,-0.1206,-0.1162,-0.1075,-0.092,-0.0717,-0.0461,-0.0364,-0.0217,-0.0411,0.0035,-0.0091,-0.0026,-0.007,-0.0302,-0.0373,0.0222,0.0234,0.0244,0.0252,0,-0.089,-0.0898,-0.0891,-0.0849,-0.0836,-0.0832,-0.0845,-0.0811,-0.09,-0.0808,-0.0608,-0.0437,-0.0114,0.0211,0.0404,0.045,0.0078,0.0251,0.023,0.0429,0.027,0.0231,-0.0028,0.034,0.0331,0.0325,0.032,0.0316,-0.0743,-0.0683,-0.0668,-0.0626,-0.0605,-0.0559,-0.0514,-0.0507,-0.0417,-0.0271,-0.0165,0.0147,0.0539,0.0904,0.0965,0.1181,0.0818,0.1131,0.1025,0.0775,0.0769,0.0767,0.1261,0.1258,0.1255,0.1252,0.125,0,-0.0578,-0.0528,-0.0457,-0.0415,-0.0332,-0.0383,-0.0338,-0.0276,-0.0111,0.0105,0.0335,0.0857,0.1294,0.1499,0.186,0.1903,0.1614,0.182,0.1486,0.136,0.136,0.143,0.2092,0.2092,0.2092,0.2092,0.2092,0.2091,-0.0493,-0.0381,-0.0351,-0.018,-0.0135,-0.0022,0.0026,0.013,0.0271,0.0662,0.097,0.1182,0.153,0.2026,0.2283,0.2258,0.195,0.2024,0.1723,0.1723,0.1644,0.1569,0.162,0.2311,0.2311,0.1705,0.1701,0.1698]},{"header":{"parameterUnit":"m.s-1","parameterCategory":2,"la1":30.2991,"la2":30.254,"lo1":-89.0895,"lo2":-89.0444,"dy":0.0017,"dx":0.0017,"nx":28,"ny":28,"refTime":"2025-09-06T03:00:00:Z","depth":"0","parameterNumber":3,"parameterNumberName":"V-component_of_CURRENTS"},"data":[0,0,0,0,0,0,0,0,0,0,0,0,0,0,0,0,0,0,0,0,0,0,0,0,0,0,0,0,0,0,0,0,0,0,0,0,0,0,0,0,0,0,0,0,0,0,0,0,0,0,0,0,0,0,0,0,0,0,-0.0131,-0.013,0,0.0007,0.0008,0.001,0.0062,0.0061,0.0061,0.0061,0.0168,0.0171,0.0174,0,0,0,0,0,0,0,0,0,0,0,0,0,-0.0354,-0.035,-0.0132,-0.013,-0.0128,0.0007,0.0008,0.001,0.0062,0.0061,0.0061,0.006,0.0167,0.0171,0.0175,0,0,0,0,0,0,0,0,0,0,0,0,0,-0.0241,-0.0349,-0.0132,-0.0086,-0.0081,0.0006,0.0009,0.0011,0.0062,0.0061,0.0061,0.006,0.0166,0.017,0.0175,0.0219,0,0,0.019,0.0192,0,0,0,0,0,0,0,0,-0.0247,-0.0232,-0.0095,-0.0089,-0.0083,0.0016,-0.003,0.0079,0.0062,0.0008,0.0061,0.006,0.0115,0.0124,0.0152,0.0224,0.0229,0.0191,0.0194,0.0196,0.0197,0,0,0,0,0,0,0,-0.0255,-0.0238,-0.0077,-0.0093,-0.0086,-0.0074,-0.0058,-0.0009,0.0063,0.0013,0.0017,0.0032,0.0118,0.0147,0.0155,0.023,0.0191,0.0195,0.0198,0.02,0.0281,0.0281,0,0,0,0,0,0,-0.027,-0.0245,-0.0081,-0.0073,-0.0168,-0.0069,-0.0052,-0.0015,0.0063,0.0075,0.0033,0.0034,0.0139,0.0149,0.0159,0.0148,0.0196,0.02,0.0203,0.0282,0.0281,0.028,0,0,0,0,0,0,-0.0275,-0.0256,-0.0087,-0.0158,-0.0135,-0.0065,-0.0023,-0.0012,0.0016,0.0079,0.0089,0.0047,0.0139,0.0152,0.0189,0.0155,0.0203,0.0207,0.0283,0.0282,0.0281,0.017,0,0,0,0,0,0,-0.0282,-0.0258,-0.0237,-0.0158,-0.0132,-0.0046,-0.0022,-0.0009,0.0027,0.003,0.0095,0.0105,0.0139,0.0182,0.0194,0.0163,0.0211,0.0284,0.0282,0.0281,0.0175,0.0165,0.0157,0,0,0,0,0,-0.029,-0.0258,-0.0236,-0.0217,-0.0103,-0.0046,-0.0032,0.0015,0.0027,0.0037,0.0076,0.0103,0.018,0.0186,0.02,0.0169,0.0285,0.0283,0.0281,0.0179,0.0167,0.0157,0,0,0,0,0,0,-0.033,-0.0247,-0.0222,-0.0162,-0.0115,-0.0038,-0.002,0.0013,0.0055,0.0056,0.0109,0.0121,0.0136,0.0177,0.0181,0.0188,0.0231,0.0232,0.0148,0.0138,0.0129,0.0097,0.0215,0,0,0,0,0,-0.0331,-0.0293,-0.0218,-0.0173,-0.0153,-0.0088,-0.0058,-0.0026,0.0023,0.0042,0.0083,0.0121,0.0143,0.0159,0.0195,0.0213,0.0235,0.0199,0.019,0.0182,0.0166,0.0153,0.014,0.0274,0.0274,0.0275,0,0,-0.0332,-0.0284,-0.0259,-0.0181,-0.0141,-0.0126,-0.0072,-0.0031,-0.0033,0.0046,0.0056,0.0099,0.0143,0.0151,0.016,0.0178,0.0161,0.018,0.0172,0.016,0.015,0.0136,0.0124,0.0273,0.0273,0.0274,0,0,-0.0343,-0.0277,-0.0266,-0.0233,-0.018,-0.0146,-0.014,-0.0072,-0.0058,-0.0027,0.0007,0.0024,0.0088,0.009,0.0103,0.0072,0.0117,0.009,0.0017,0.0004,-0.0008,-0.0018,0.0013,0.0007,0.0081,0.0081,0.0081,0,-0.0352,-0.0319,-0.0256,-0.0248,-0.0232,-0.0166,-0.0168,-0.0143,-0.0077,-0.0078,-0.0042,0.0007,0.0047,0.0022,0.001,0.0046,0.007,0.005,-0.0011,-0.002,-0.0029,0.0005,-0.0,0.0076,0.0076,0.0077,0.0077,0,-0.0367,-0.0343,-0.0335,-0.0312,-0.0289,-0.0271,-0.0237,-0.0225,-0.0196,-0.0172,-0.017,-0.0115,-0.0091,-0.0082,-0.0041,-0.0089,-0.004,-0.0021,0.0008,-0.005,-0.0008,-0.0013,0.0068,0.007,0.0071,0.0073,0,0,-0.038,-0.0354,-0.0352,-0.0357,-0.032,-0.03,-0.0321,-0.0316,-0.0331,-0.0289,-0.0309,-0.0283,-0.0246,-0.0229,-0.0186,-0.0197,-0.0225,-0.0137,-0.0135,-0.0118,-0.0219,-0.0132,-0.0127,-0.0216,-0.0217,-0.0219,-0.0158,0,-0.0414,-0.0424,-0.0404,-0.0422,-0.0422,-0.039,-0.0413,-0.0404,-0.0386,-0.0387,-0.0365,-0.0351,-0.0307,-0.0285,-0.03,-0.0228,-0.0244,-0.0241,-0.0154,-0.015,-0.0078,-0.0133,-0.0033,0.0033,-0.0162,-0.0163,-0.0163,0,-0.0439,-0.0443,-0.0468,-0.0476,-0.0475,-0.0484,-0.0501,-0.0508,-0.0513,-0.0497,-0.0499,-0.0456,-0.0457,-0.0406,-0.0369,-0.0362,-0.0312,-0.0267,-0.0263,-0.0152,-0.0073,0.0057,0.0033,-0.0019,-0.0169,-0.0169,-0.0168,0,-0.0474,-0.0485,-0.0511,-0.0508,-0.0512,-0.053,-0.0535,-0.0543,-0.0542,-0.056,-0.0535,-0.0551,-0.0495,-0.0488,-0.0365,-0.0375,-0.03,-0.0302,-0.0188,-0.0179,-0.0063,-0.004,-0.014,-0.0315,-0.0316,-0.0316,-0.0316,0,-0.0505,-0.052,-0.0527,-0.0535,-0.0565,-0.0561,-0.0589,-0.0597,-0.0598,-0.0566,-0.0582,-0.0523,-0.051,-0.044,-0.0393,-0.0273,-0.0322,-0.0213,-0.0174,-0.0092,-0.0075,-0.0086,-0.0165,-0.0313,-0.0314,-0.0314,-0.0315,0,-0.052,-0.053,-0.055,-0.057,-0.0574,-0.0589,-0.0588,-0.0597,-0.0599,-0.0553,-0.0547,-0.049,-0.038,-0.0347,-0.0276,-0.0254,-0.0203,-0.014,-0.0018,0.0032,0.0057,-0.0031,-0.0173,-0.0143,-0.0044,-0.0042,-0.004,0,-0.0524,-0.0536,-0.0558,-0.0559,-0.0563,-0.0579,-0.0579,-0.0594,-0.0573,-0.0485,-0.044,-0.034,-0.0184,-0.0065,-0.0039,0.0025,-0.0068,0.0116,0.0084,0.0055,-0.0015,-0.0153,-0.0128,0.021,0.0214,0.0217,0.022,0,-0.0519,-0.0526,-0.0538,-0.054,-0.0544,-0.0549,-0.0535,-0.0514,-0.048,-0.0388,-0.0199,-0.0064,0.0075,0.0239,0.0273,0.0279,0.0058,0.0182,0.0104,0.0121,0.001,0.0064,0.0196,0.0248,0.0245,0.0243,0.0241,0.024,-0.0498,-0.0497,-0.0501,-0.0497,-0.0504,-0.0483,-0.044,-0.0371,-0.0266,-0.0033,0.0052,0.0374,0.0509,0.0603,0.0498,0.0393,0.028,0.0385,0.0271,0.0128,0.0156,0.0366,0.0486,0.0485,0.0483,0.0482,0.0481,0,-0.0448,-0.0444,-0.0446,-0.0436,-0.0414,-0.0437,-0.0373,-0.026,-0.0043,0.0234,0.0504,0.0925,0.0961,0.0888,0.0759,0.0565,0.04,0.0429,0.0245,0.0266,0.0444,0.046,0.0639,0.0639,0.0639,0.0639,0.0639,0.0639,-0.0416,-0.0392,-0.039,-0.0336,-0.0324,-0.0236,-0.0172,0.0035,0.0272,0.0785,0.1168,0.1432,0.1537,0.1025,0.0677,0.0546,0.0321,0.0212,0.0123,0.0236,0.0223,0.021,0.0208,0.033,0.0329,0.0025,0.0022,0.002]}],[{"header":{"parameterUnit":"m.s-1","parameterCategory":2,"la1":30.2991,"la2":30.254,"lo1":-89.0895,"lo2":-89.0444,"dy":0.0017,"dx":0.0017,"nx":28,"ny":28,"refTime":"2025-09-06T03:00:00:Z","depth":"2","parameterNumber":2,"parameterNumberName":"U-component_of_CURRENTS"},"data":[0,0,0,0,0,0,0,0,0,0,0,0,0,0,0,0,0,0,0,0,0,0,0,0,0,0,0,0,0,0,0,0,0,0,0,0,0,0,0,0,0,0,0,0,0,0,0,0,0,0,0,0,0,0,0,0,0,0,-0.0886,-0.0886,0,-0.0921,-0.0921,-0.0922,-0.0949,-0.0949,-0.0949,-0.0949,-0.098,-0.098,-0.0981,0,0,0,0,0,0,0,0,0,0,0,0,0,-0.0856,-0.0856,-0.0886,-0.0886,-0.0886,-0.0921,-0.0922,-0.0922,-0.0949,-0.0949,-0.0949,-0.0949,-0.0979,-0.098,-0.0981,0,0,0,0,0,0,0,0,0,0,0,0,0,-0.0879,-0.0856,-0.0886,-0.0902,-0.0904,-0.0921,-0.0922,-0.0922,-0.0949,-0.0949,-0.0949,-0.0949,-0.0979,-0.098,-0.0981,-0.0986,0,0,-0.0985,-0.0985,0,0,0,0,0,0,0,0,-0.0878,-0.0881,-0.09,-0.0901,-0.0903,-0.0929,-0.0922,-0.0943,-0.0949,-0.0934,-0.0949,-0.0949,-0.0961,-0.0964,-0.0973,-0.0988,-0.0989,-0.0985,-0.0986,-0.0986,-0.0986,0,0,0,0,0,0,0,-0.0876,-0.0879,-0.0902,-0.09,-0.0902,-0.0913,-0.0916,-0.0926,-0.0948,-0.0935,-0.0937,-0.0937,-0.0962,-0.0972,-0.0974,-0.0989,-0.0985,-0.0986,-0.0987,-0.0987,-0.0994,-0.0993,0,0,0,0,0,0,-0.0867,-0.0878,-0.0901,-0.0903,-0.0888,-0.0913,-0.0917,-0.0922,-0.0948,-0.0951,-0.0937,-0.0938,-0.097,-0.0972,-0.0975,-0.0969,-0.0986,-0.0987,-0.0988,-0.0994,-0.0994,-0.0993,0,0,0,0,0,0,-0.0867,-0.0869,-0.0899,-0.0889,-0.0893,-0.0913,-0.0919,-0.0923,-0.0944,-0.0949,-0.0953,-0.0956,-0.097,-0.0973,-0.0979,-0.097,-0.0988,-0.0989,-0.0995,-0.0994,-0.0993,-0.0965,0,0,0,0,0,0,-0.0866,-0.0869,-0.0881,-0.0889,-0.0894,-0.091,-0.0919,-0.0923,-0.0943,-0.0945,-0.0966,-0.0969,-0.097,-0.0977,-0.098,-0.0972,-0.099,-0.0995,-0.0994,-0.0994,-0.0966,-0.0963,-0.096,0,0,0,0,0,-0.0865,-0.0869,-0.0881,-0.0885,-0.0906,-0.091,-0.0914,-0.0929,-0.0944,-0.0951,-0.0958,-0.0969,-0.0973,-0.0977,-0.0981,-0.0974,-0.0996,-0.0995,-0.0994,-0.0968,-0.0964,-0.0961,0,0,0,0,0,0,-0.0845,-0.0872,-0.0886,-0.0895,-0.0905,-0.0914,-0.0924,-0.0937,-0.0951,-0.0955,-0.0966,-0.0968,-0.0965,-0.0976,-0.0981,-0.0972,-0.0985,-0.0985,-0.0964,-0.0961,-0.0958,-0.0953,-0.0991,0,0,0,0,0,-0.085,-0.0868,-0.0886,-0.0889,-0.0901,-0.0919,-0.0928,-0.0935,-0.0942,-0.095,-0.0959,-0.0965,-0.0962,-0.0968,-0.0966,-0.097,-0.0964,-0.0966,-0.0963,-0.0961,-0.0958,-0.0943,-0.0938,-0.0989,-0.0989,-0.0989,0,0,-0.085,-0.0857,-0.0873,-0.0888,-0.0902,-0.0905,-0.0925,-0.0934,-0.0928,-0.095,-0.095,-0.0956,-0.096,-0.0951,-0.0953,-0.0962,-0.094,-0.0959,-0.0957,-0.0956,-0.0941,-0.0936,-0.0932,-0.0989,-0.0989,-0.0989,0,0,-0.0834,-0.0859,-0.0873,-0.0883,-0.0897,-0.0899,-0.0905,-0.092,-0.0927,-0.0928,-0.0932,-0.0931,-0.0943,-0.0932,-0.0931,-0.0915,-0.0921,-0.0921,-0.0908,-0.0893,-0.0888,-0.0884,-0.0854,-0.0848,-0.0924,-0.0924,-0.0924,0,-0.0848,-0.0842,-0.0872,-0.0875,-0.0879,-0.0897,-0.0898,-0.0901,-0.0909,-0.0911,-0.0923,-0.0924,-0.0927,-0.091,-0.0901,-0.0907,-0.0899,-0.0921,-0.0888,-0.0884,-0.0881,-0.0851,-0.0845,-0.0923,-0.0923,-0.0923,-0.0923,0,-0.0834,-0.0836,-0.0838,-0.0851,-0.0856,-0.0857,-0.0864,-0.0869,-0.088,-0.0882,-0.0879,-0.0881,-0.0883,-0.0882,-0.0888,-0.0865,-0.0866,-0.0882,-0.0897,-0.0874,-0.0844,-0.0838,-0.0921,-0.0921,-0.0922,-0.0922,0,0,-0.0851,-0.0844,-0.0841,-0.0838,-0.0846,-0.0843,-0.0837,-0.0837,-0.0835,-0.0842,-0.0838,-0.083,-0.0843,-0.0843,-0.0849,-0.0839,-0.08,-0.0854,-0.0854,-0.0822,-0.0757,-0.0608,-0.0587,-0.0816,-0.0815,-0.0815,-0.074,0,-0.0839,-0.0827,-0.0825,-0.0804,-0.0802,-0.0817,-0.0806,-0.0806,-0.0812,-0.0809,-0.0813,-0.0808,-0.0824,-0.0828,-0.0818,-0.0812,-0.0785,-0.0818,-0.0786,-0.0784,-0.0653,-0.0574,-0.0585,-0.0506,-0.0734,-0.0733,-0.0732,0,-0.0821,-0.0808,-0.0796,-0.0778,-0.0783,-0.0773,-0.077,-0.0763,-0.0764,-0.0774,-0.0777,-0.0787,-0.0771,-0.0789,-0.0757,-0.0782,-0.0761,-0.0753,-0.075,-0.0616,-0.0622,-0.0569,-0.0486,-0.0722,-0.0723,-0.0723,-0.0724,0,-0.0793,-0.0781,-0.0766,-0.0766,-0.0756,-0.0754,-0.0749,-0.0752,-0.0744,-0.0749,-0.0742,-0.0747,-0.0727,-0.0727,-0.0693,-0.0738,-0.0639,-0.0701,-0.0539,-0.0529,-0.0531,-0.0521,-0.0655,-0.0655,-0.0656,-0.0656,-0.0656,0,-0.0769,-0.0752,-0.0753,-0.0742,-0.0719,-0.0729,-0.0709,-0.0715,-0.0715,-0.0682,-0.0715,-0.0673,-0.071,-0.066,-0.0665,-0.0545,-0.0609,-0.0503,-0.0486,-0.0517,-0.0506,-0.07,-0.0707,-0.0653,-0.0654,-0.0654,-0.0655,0,-0.0733,-0.0739,-0.0714,-0.0707,-0.0701,-0.0685,-0.0675,-0.066,-0.0668,-0.0626,-0.0623,-0.0605,-0.0518,-0.0512,-0.0478,-0.0462,-0.0403,-0.0341,-0.0352,-0.0334,-0.0326,-0.0332,-0.0188,-0.0182,-0.0176,-0.0172,-0.0168,0,-0.0713,-0.0698,-0.0682,-0.0663,-0.0657,-0.0638,-0.0618,-0.0631,-0.0612,-0.0559,-0.0525,-0.0435,-0.0327,-0.0197,-0.0159,-0.0092,-0.0188,-0.0075,-0.0147,-0.0273,-0.0272,-0.0286,-0.0299,-0.0157,-0.0154,-0.0151,-0.0148,0,-0.066,-0.0662,-0.0642,-0.0608,-0.0584,-0.0555,-0.0532,-0.051,-0.05,-0.0446,-0.0329,-0.0237,-0.0076,0.0035,0.0141,0.0134,-0.0096,-0.0007,-0.014,-0.0241,-0.0228,-0.0232,-0.0249,-0.0123,-0.0126,-0.0127,-0.0129,-0.013,-0.0614,-0.0592,-0.0568,-0.0535,-0.0509,-0.0462,-0.0408,-0.0377,-0.0305,-0.0179,-0.0139,0.0053,0.0062,0.0302,0.0285,0.0243,0.0224,0.0127,0.011,0.0091,0.0115,0.014,0.0318,0.0318,0.0318,0.0318,0.0318,0,-0.0536,-0.0521,-0.0491,-0.0442,-0.0398,-0.0401,-0.0334,-0.0257,-0.0131,0.0018,0.0162,0.0246,0.0371,0.0375,0.0391,0.0372,0.0245,0.0297,0.0117,0.0096,0.0076,0.0088,0.029,0.0289,0.0289,0.0289,0,0,-0.0489,-0.0439,-0.0429,-0.0337,-0.0306,-0.0202,-0.0143,-0.0029,0.0099,0.0275,0.0415,0.0548,0.0517,0.0492,0.0408,0.0388,0.0235,0.0347,0.0378,0.0158,0.0138,-0.0004,-0.0001,0,0,0,0,0]},{"header":{"parameterUnit":"m.s-1","parameterCategory":2,"la1":30.2991,"la2":30.254,"lo1":-89.0895,"lo2":-89.0444,"dy":0.0017,"dx":0.0017,"nx":28,"ny":28,"refTime":"2025-09-06T03:00:00:Z","depth":"2","parameterNumber":3,"parameterNumberName":"V-component_of_CURRENTS"},"data":[0,0,0,0,0,0,0,0,0,0,0,0,0,0,0,0,0,0,0,0,0,0,0,0,0,0,0,0,0,0,0,0,0,0,0,0,0,0,0,0,0,0,0,0,0,0,0,0,0,0,0,0,0,0,0,0,0,0,-0.0406,-0.0405,0,-0.0371,-0.037,-0.037,-0.0341,-0.0341,-0.0341,-0.0341,-0.0283,-0.0282,-0.028,0,0,0,0,0,0,0,0,0,0,0,0,0,-0.0429,-0.0429,-0.0406,-0.0405,-0.0405,-0.0371,-0.037,-0.037,-0.0341,-0.0341,-0.0341,-0.0341,-0.0284,-0.0282,-0.028,0,0,0,0,0,0,0,0,0,0,0,0,0,-0.0407,-0.0429,-0.0406,-0.0388,-0.0387,-0.0371,-0.037,-0.037,-0.0341,-0.0341,-0.0341,-0.0341,-0.0284,-0.0282,-0.028,-0.0271,0,0,-0.0273,-0.0273,0,0,0,0,0,0,0,0,-0.0409,-0.0406,-0.0391,-0.039,-0.0388,-0.0362,-0.0357,-0.0336,-0.0341,-0.0357,-0.0341,-0.0341,-0.0309,-0.0305,-0.0296,-0.0268,-0.0265,-0.0273,-0.0272,-0.0271,-0.027,0,0,0,0,0,0,0,-0.041,-0.0407,-0.039,-0.0391,-0.0389,-0.0376,-0.0373,-0.0353,-0.0332,-0.0355,-0.0354,-0.0353,-0.0307,-0.0298,-0.0295,-0.0265,-0.0273,-0.0271,-0.027,-0.0269,-0.0215,-0.0214,0,0,0,0,0,0,-0.0419,-0.0409,-0.0391,-0.0389,-0.04,-0.0376,-0.0372,-0.0369,-0.0333,-0.0328,-0.0353,-0.0352,-0.0302,-0.0297,-0.0292,-0.0274,-0.0271,-0.0269,-0.0268,-0.0215,-0.0214,-0.0214,0,0,0,0,0,0,-0.042,-0.0418,-0.0393,-0.04,-0.0396,-0.0376,-0.0372,-0.0368,-0.0357,-0.0332,-0.0326,-0.0346,-0.0302,-0.0295,-0.0281,-0.0272,-0.0268,-0.0266,-0.0215,-0.0215,-0.0214,-0.0241,0,0,0,0,0,0,-0.0421,-0.0418,-0.0416,-0.0401,-0.0396,-0.0385,-0.0373,-0.0368,-0.0358,-0.0355,-0.0324,-0.0318,-0.0301,-0.0284,-0.0278,-0.0269,-0.0265,-0.0215,-0.0215,-0.0214,-0.0241,-0.0242,-0.0243,0,0,0,0,0,-0.0422,-0.0421,-0.0416,-0.0414,-0.0395,-0.0386,-0.0382,-0.0366,-0.0358,-0.0354,-0.0337,-0.0319,-0.0277,-0.0283,-0.0276,-0.0266,-0.0215,-0.0215,-0.0214,-0.024,-0.0242,-0.0243,0,0,0,0,0,0,-0.0432,-0.0418,-0.0412,-0.0408,-0.0399,-0.0382,-0.0377,-0.0366,-0.035,-0.0348,-0.0322,-0.0315,-0.0296,-0.028,-0.0286,-0.0249,-0.0241,-0.0239,-0.0263,-0.0264,-0.0265,-0.0263,-0.0263,0,0,0,0,0,-0.0434,-0.0429,-0.0416,-0.0414,-0.0409,-0.0393,-0.0386,-0.0378,-0.0363,-0.0355,-0.0334,-0.0311,-0.0289,-0.0277,-0.0257,-0.024,-0.0216,-0.0228,-0.0229,-0.023,-0.0223,-0.0195,-0.0194,-0.0213,-0.0213,-0.0213,0,0,-0.044,-0.0431,-0.0429,-0.0416,-0.0407,-0.0398,-0.0388,-0.0382,-0.0372,-0.0352,-0.0332,-0.0315,-0.0286,-0.0268,-0.0257,-0.0253,-0.0211,-0.023,-0.0231,-0.0223,-0.0195,-0.0193,-0.0191,-0.0213,-0.0213,-0.0213,0,0,-0.0447,-0.0439,-0.0435,-0.0427,-0.0417,-0.0406,-0.0405,-0.0388,-0.0376,-0.0362,-0.0342,-0.0324,-0.0292,-0.027,-0.0255,-0.025,-0.0219,-0.0241,-0.0245,-0.0218,-0.0216,-0.0214,-0.0177,-0.0172,-0.0242,-0.0242,-0.0242,0,-0.0449,-0.0444,-0.0433,-0.0427,-0.042,-0.0409,-0.0402,-0.039,-0.0371,-0.036,-0.0359,-0.0309,-0.029,-0.0259,-0.026,-0.0251,-0.023,-0.0244,-0.022,-0.0218,-0.0215,-0.0178,-0.0171,-0.0243,-0.0243,-0.0243,-0.0243,0,-0.0454,-0.0446,-0.0444,-0.0429,-0.0421,-0.0418,-0.0402,-0.0392,-0.0379,-0.0364,-0.0336,-0.0315,-0.0284,-0.0275,-0.0267,-0.0238,-0.0225,-0.0227,-0.0218,-0.0215,-0.0175,-0.0168,-0.0245,-0.0244,-0.0244,-0.0244,0,0,-0.0458,-0.0447,-0.0445,-0.0439,-0.0422,-0.0417,-0.0403,-0.0382,-0.0369,-0.0351,-0.033,-0.0298,-0.0288,-0.027,-0.0255,-0.0234,-0.0202,-0.0227,-0.0225,-0.0193,-0.0134,-0.0136,-0.0128,-0.0203,-0.0203,-0.0202,-0.0112,0,-0.0459,-0.0453,-0.0443,-0.0433,-0.0427,-0.0412,-0.0398,-0.0381,-0.0364,-0.0343,-0.0317,-0.0295,-0.0286,-0.0277,-0.0253,-0.0216,-0.0185,-0.0225,-0.0138,-0.0135,-0.014,-0.0121,-0.0169,-0.0095,-0.0105,-0.0104,-0.0103,0,-0.0461,-0.0454,-0.045,-0.0433,-0.0428,-0.0423,-0.0399,-0.0384,-0.0354,-0.0341,-0.0316,-0.0298,-0.026,-0.0262,-0.0184,-0.0212,-0.0172,-0.0143,-0.0138,-0.0125,-0.0124,-0.0099,-0.0081,-0.0091,-0.0091,-0.0092,-0.0093,0,-0.0472,-0.0456,-0.0455,-0.0451,-0.0432,-0.0427,-0.0414,-0.0386,-0.0373,-0.0344,-0.0331,-0.0287,-0.0261,-0.0213,-0.015,-0.0169,-0.0061,-0.0079,-0.0035,-0.0034,-0.0049,-0.0051,-0.0017,-0.0017,-0.0018,-0.0018,-0.0018,0,-0.0476,-0.0472,-0.0464,-0.0463,-0.0457,-0.0439,-0.0427,-0.0409,-0.0385,-0.036,-0.0335,-0.0303,-0.0249,-0.0186,-0.0139,-0.0056,-0.0046,-0.0023,-0.001,-0.0059,-0.0064,-0.0043,-0.0047,-0.0015,-0.0015,-0.0016,-0.0017,0,-0.0488,-0.0485,-0.0481,-0.0467,-0.0465,-0.0462,-0.0444,-0.0432,-0.0406,-0.0375,-0.0368,-0.0308,-0.0223,-0.0154,-0.0061,-0.0034,0.0037,0.0066,0.001,0.0014,0.0043,0.0037,0.0115,0.0116,0.0116,0.0117,0.0117,0,-0.0495,-0.0496,-0.049,-0.049,-0.0486,-0.0479,-0.0472,-0.045,-0.0434,-0.0368,-0.0353,-0.027,-0.02,-0.0063,-0.0001,0.0091,0.0088,0.0086,0.0035,0.0052,0.0058,0.005,0.0043,0.0012,0.0012,0.0012,0.0011,0,-0.05,-0.0501,-0.0498,-0.0498,-0.0499,-0.0492,-0.048,-0.0473,-0.043,-0.0387,-0.0308,-0.0248,-0.0129,-0.0045,0.0055,0.0082,0.0059,0.008,0.0126,-0.0023,-0.004,-0.0037,-0.0041,0.0008,0.0008,0.0008,0.0009,0.0009,-0.0502,-0.0504,-0.0501,-0.05,-0.05,-0.0492,-0.0475,-0.0446,-0.0402,-0.0292,-0.0262,-0.0106,-0.0102,0.0083,0.0076,0.0076,0.0084,0.0057,0.0056,0.0056,0.0019,0.0003,0.0053,0.0054,0.0054,0.0055,0.0055,0,-0.0497,-0.0496,-0.0497,-0.0494,-0.049,-0.0489,-0.0465,-0.0423,-0.0348,-0.02,-0.0099,-0.0011,0.0051,0.0091,0.0089,0.0051,0.0019,0.0022,-0.0018,-0.0016,-0.0013,-0.0055,-0.004,-0.004,-0.004,-0.004,0,0,-0.0491,-0.049,-0.0489,-0.048,-0.0476,-0.045,-0.0428,-0.0349,-0.0232,-0.0064,0.0094,0.0201,0.0181,0.0161,0.0055,0.0034,0.0023,0.0012,0.0083,0.0045,0.0049,-0.0009,-0.0072,0,0,0,0,0]}],[{"header":{"parameterUnit":"m.s-1","parameterCategory":2,"la1":30.2991,"la2":30.254,"lo1":-89.0895,"lo2":-89.0444,"dy":0.0017,"dx":0.0017,"nx":28,"ny":28,"refTime":"2025-09-06T03:00:00:Z","depth":"4","parameterNumber":2,"parameterNumberName":"U-component_of_CURRENTS"},"data":[0,0,0,0,0,0,0,0,0,0,0,0,0,0,0,0,0,0,0,0,0,0,0,0,0,0,0,0,0,0,0,0,0,0,0,0,0,0,0,0,0,0,0,0,0,0,0,0,0,0,0,0,0,0,0,0,0,0,-0.0391,-0.0392,0,-0.0408,-0.0408,-0.0409,-0.0419,-0.0419,-0.0419,-0.0419,-0.0434,-0.0434,-0.0435,0,0,0,0,0,0,0,0,0,0,0,0,0,-0.0358,-0.0358,-0.0391,-0.0392,-0.0392,-0.0408,-0.0408,-0.0409,-0.0419,-0.0419,-0.0419,-0.0419,-0.0434,-0.0434,-0.0435,0,0,0,0,0,0,0,0,0,0,0,0,0,-0.0373,-0.0358,-0.0391,-0.0399,-0.04,-0.0408,-0.0408,-0.0409,-0.0419,-0.0419,-0.0419,-0.0419,-0.0434,-0.0434,-0.0435,-0.0436,0,0,-0.0436,-0.0437,0,0,0,0,0,0,0,0,-0.0372,-0.0374,-0.0398,-0.0399,-0.0399,-0.0412,-0.0402,-0.0418,-0.0419,-0.0412,-0.0419,-0.042,-0.0426,-0.0427,-0.043,-0.0437,-0.0437,-0.0436,-0.0437,-0.0437,-0.0437,0,0,0,0,0,0,0,-0.0371,-0.0374,-0.0398,-0.0398,-0.0399,-0.0398,-0.04,-0.0405,-0.0418,-0.0412,-0.0413,-0.0415,-0.0427,-0.043,-0.0431,-0.0438,-0.0436,-0.0437,-0.0437,-0.0437,-0.0453,-0.0453,0,0,0,0,0,0,-0.037,-0.0373,-0.0397,-0.0398,-0.0386,-0.0399,-0.0401,-0.0408,-0.0418,-0.042,-0.0415,-0.0416,-0.0429,-0.043,-0.0431,-0.045,-0.0437,-0.0437,-0.0438,-0.0453,-0.0453,-0.0453,0,0,0,0,0,0,-0.0369,-0.0372,-0.0397,-0.0386,-0.0389,-0.0399,-0.0406,-0.0408,-0.042,-0.042,-0.0422,-0.0426,-0.0429,-0.0431,-0.0443,-0.045,-0.0438,-0.0438,-0.0453,-0.0453,-0.0453,-0.0476,0,0,0,0,0,0,-0.0368,-0.0372,-0.038,-0.0386,-0.0389,-0.0407,-0.0406,-0.0408,-0.042,-0.0421,-0.043,-0.0431,-0.0429,-0.0442,-0.0444,-0.045,-0.0438,-0.0452,-0.0453,-0.0453,-0.0475,-0.0477,-0.0479,0,0,0,0,0,-0.0367,-0.0379,-0.038,-0.0383,-0.0399,-0.0408,-0.041,-0.0417,-0.0421,-0.0428,-0.0434,-0.0431,-0.0444,-0.0443,-0.0444,-0.0451,-0.0452,-0.0453,-0.0453,-0.0474,-0.0477,-0.0479,0,0,0,0,0,0,-0.037,-0.0381,-0.0383,-0.0399,-0.0404,-0.041,-0.042,-0.0423,-0.0433,-0.0438,-0.0437,-0.0439,-0.045,-0.0447,-0.0446,-0.0455,-0.0446,-0.0446,-0.0462,-0.0464,-0.0466,-0.0469,-0.0439,0,0,0,0,0,-0.0374,-0.0387,-0.0392,-0.0405,-0.041,-0.0416,-0.0422,-0.0427,-0.0434,-0.044,-0.0444,-0.0447,-0.045,-0.0455,-0.0456,-0.0466,-0.045,-0.0469,-0.0471,-0.0472,-0.0475,-0.0457,-0.0457,-0.0454,-0.0454,-0.0454,0,0,-0.0379,-0.0387,-0.0394,-0.0407,-0.0414,-0.0424,-0.042,-0.0434,-0.0445,-0.044,-0.0458,-0.0455,-0.0454,-0.0462,-0.0467,-0.0463,-0.0463,-0.0473,-0.0474,-0.0476,-0.0457,-0.0458,-0.0458,-0.0454,-0.0454,-0.0454,0,0,-0.0395,-0.0402,-0.0418,-0.0423,-0.0435,-0.0438,-0.0443,-0.0452,-0.0459,-0.0473,-0.0469,-0.0472,-0.048,-0.0478,-0.0478,-0.049,-0.0471,-0.0489,-0.0504,-0.0487,-0.0487,-0.0487,-0.0458,-0.0455,-0.0492,-0.0492,-0.0492,0,-0.0403,-0.042,-0.0423,-0.0437,-0.0445,-0.0445,-0.046,-0.0467,-0.0478,-0.0483,-0.0482,-0.0487,-0.0487,-0.0493,-0.0497,-0.0495,-0.0477,-0.0498,-0.0489,-0.0489,-0.0488,-0.0459,-0.0456,-0.0493,-0.0493,-0.0493,-0.0492,0,-0.0425,-0.044,-0.0449,-0.0466,-0.0474,-0.0488,-0.0493,-0.0502,-0.0509,-0.0511,-0.0519,-0.0515,-0.0516,-0.0514,-0.0513,-0.051,-0.0495,-0.0492,-0.0485,-0.049,-0.0459,-0.0455,-0.0494,-0.0494,-0.0494,-0.0493,0,0,-0.0447,-0.0463,-0.0469,-0.0474,-0.0491,-0.0497,-0.0517,-0.0529,-0.0537,-0.0543,-0.0549,-0.0553,-0.0546,-0.0545,-0.0537,-0.0524,-0.0504,-0.0511,-0.0509,-0.0484,-0.0455,-0.0407,-0.0397,-0.0499,-0.0499,-0.0499,-0.0432,0,-0.0466,-0.0489,-0.0497,-0.0518,-0.0527,-0.0533,-0.0547,-0.0557,-0.0561,-0.0564,-0.056,-0.0559,-0.0559,-0.0554,-0.0546,-0.0511,-0.0496,-0.0522,-0.0453,-0.0451,-0.0408,-0.0392,-0.0498,-0.0429,-0.0428,-0.0427,-0.0427,0,-0.0486,-0.0498,-0.0522,-0.0534,-0.054,-0.0553,-0.0568,-0.058,-0.0585,-0.0587,-0.0589,-0.0579,-0.0565,-0.056,-0.0513,-0.0529,-0.0499,-0.0472,-0.0468,-0.0413,-0.0395,-0.0424,-0.0419,-0.042,-0.042,-0.0421,-0.0421,0,-0.0488,-0.0514,-0.0532,-0.0537,-0.0554,-0.0567,-0.0576,-0.0587,-0.0588,-0.0595,-0.0585,-0.0581,-0.0557,-0.0532,-0.0483,-0.0496,-0.0418,-0.0427,-0.0355,-0.0351,-0.0407,-0.0407,-0.0396,-0.0396,-0.0396,-0.0397,-0.0397,0,-0.0496,-0.0511,-0.0532,-0.0539,-0.0552,-0.0568,-0.0578,-0.0588,-0.0591,-0.0573,-0.0591,-0.0561,-0.0548,-0.0502,-0.0475,-0.0392,-0.041,-0.035,-0.0329,-0.0416,-0.0419,-0.0403,-0.0405,-0.0394,-0.0395,-0.0395,-0.0396,0,-0.0489,-0.0507,-0.0523,-0.0546,-0.0551,-0.0558,-0.0564,-0.0561,-0.0575,-0.0549,-0.0546,-0.053,-0.0468,-0.0444,-0.0383,-0.0359,-0.0301,-0.0271,-0.0351,-0.0338,-0.025,-0.0253,-0.0184,-0.0181,-0.0179,-0.0178,-0.0176,0,-0.0481,-0.0493,-0.0519,-0.0518,-0.0527,-0.0536,-0.0532,-0.0549,-0.0536,-0.0512,-0.0486,-0.0438,-0.0417,-0.0286,-0.0284,-0.0224,-0.0221,-0.0197,-0.0242,-0.024,-0.0227,-0.0234,-0.024,-0.0173,-0.0173,-0.0172,-0.0172,0,-0.0463,-0.0482,-0.0489,-0.0489,-0.0487,-0.0481,-0.0476,-0.0459,-0.0459,-0.0477,-0.0392,-0.0347,-0.0274,-0.0232,-0.0186,-0.0151,-0.0218,-0.0176,-0.0181,-0.0223,-0.0227,-0.0218,-0.0226,-0.0165,-0.0166,-0.0167,-0.0167,0,-0.0441,-0.0438,-0.0447,-0.044,-0.044,-0.0411,-0.0418,-0.038,-0.0366,-0.0345,-0.0309,-0.0263,-0.0252,-0.0191,-0.0148,-0.011,-0.0111,-0.0109,-0.0118,-0.0125,-0.0139,-0.0137,-0.002,0,0,0,0,0,-0.0405,-0.0392,-0.039,-0.0373,-0.0376,-0.0369,-0.0367,-0.0375,-0.0373,-0.0293,-0.0299,-0.0228,-0.0153,-0.0139,-0.0085,-0.0132,-0.0124,-0.0071,-0.013,-0.0127,-0.0135,-0.0159,0,0,0,0,0,0,-0.0372,-0.037,-0.0369,-0.0319,-0.0297,-0.0282,-0.0276,-0.0278,-0.0239,-0.0241,-0.02,-0.0204,-0.0141,-0.0167,-0.0075,-0.0071,-0.0099,-0.0055,-0.0053,-0.0123,-0.013,-0.0136,-0.0164,0,0,0,0,0]},{"header":{"parameterUnit":"m.s-1","parameterCategory":2,"la1":30.2991,"la2":30.254,"lo1":-89.0895,"lo2":-89.0444,"dy":0.0017,"dx":0.0017,"nx":28,"ny":28,"refTime":"2025-09-06T03:00:00:Z","depth":"4","parameterNumber":3,"parameterNumberName":"V-component_of_CURRENTS"},"data":[0,0,0,0,0,0,0,0,0,0,0,0,0,0,0,0,0,0,0,0,0,0,0,0,0,0,0,0,0,0,0,0,0,0,0,0,0,0,0,0,0,0,0,0,0,0,0,0,0,0,0,0,0,0,0,0,0,0,-0.028,-0.028,0,-0.029,-0.029,-0.029,-0.0298,-0.0298,-0.0298,-0.0298,-0.0314,-0.0314,-0.0315,0,0,0,0,0,0,0,0,0,0,0,0,0,-0.0273,-0.0273,-0.028,-0.028,-0.028,-0.029,-0.029,-0.029,-0.0298,-0.0298,-0.0298,-0.0298,-0.0314,-0.0314,-0.0315,0,0,0,0,0,0,0,0,0,0,0,0,0,-0.028,-0.0273,-0.028,-0.0285,-0.0285,-0.029,-0.029,-0.029,-0.0298,-0.0298,-0.0298,-0.0298,-0.0314,-0.0314,-0.0315,-0.0318,0,0,-0.0317,-0.0317,0,0,0,0,0,0,0,0,-0.0279,-0.028,-0.0284,-0.0284,-0.0285,-0.0292,-0.0293,-0.0299,-0.0298,-0.0294,-0.0298,-0.0298,-0.0306,-0.0308,-0.0311,-0.0319,-0.032,-0.0317,-0.0317,-0.0317,-0.0317,0,0,0,0,0,0,0,-0.0279,-0.028,-0.0285,-0.0284,-0.0284,-0.0288,-0.0289,-0.0294,-0.0301,-0.0295,-0.0295,-0.0295,-0.0307,-0.031,-0.0311,-0.032,-0.0317,-0.0317,-0.0318,-0.0318,-0.0289,-0.0288,0,0,0,0,0,0,-0.0275,-0.0279,-0.0284,-0.0285,-0.0281,-0.0288,-0.0289,-0.029,-0.0301,-0.0302,-0.0295,-0.0295,-0.0309,-0.031,-0.0312,-0.0288,-0.0317,-0.0318,-0.0318,-0.029,-0.0289,-0.0288,0,0,0,0,0,0,-0.0275,-0.0276,-0.0284,-0.0281,-0.0283,-0.0288,-0.0289,-0.0291,-0.0299,-0.0301,-0.0302,-0.0303,-0.0309,-0.0311,-0.0307,-0.0289,-0.0318,-0.0319,-0.0292,-0.029,-0.0289,-0.0258,0,0,0,0,0,0,-0.0275,-0.0276,-0.0281,-0.0281,-0.0282,-0.0287,-0.0289,-0.0291,-0.0298,-0.0299,-0.0308,-0.0309,-0.0309,-0.0306,-0.0307,-0.0291,-0.0319,-0.0293,-0.0291,-0.0289,-0.026,-0.0256,-0.0251,0,0,0,0,0,-0.0275,-0.0279,-0.0281,-0.0282,-0.0287,-0.0287,-0.0288,-0.0292,-0.0299,-0.0301,-0.0298,-0.0309,-0.0293,-0.0306,-0.0308,-0.0291,-0.0294,-0.0292,-0.0289,-0.0263,-0.0257,-0.0251,0,0,0,0,0,0,-0.0283,-0.0281,-0.0282,-0.0287,-0.0287,-0.0288,-0.0294,-0.0296,-0.0298,-0.0301,-0.0303,-0.0303,-0.0289,-0.0295,-0.0309,-0.0274,-0.0293,-0.029,-0.0271,-0.0266,-0.0261,-0.0262,-0.032,0,0,0,0,0,-0.0286,-0.0287,-0.0285,-0.029,-0.0291,-0.0295,-0.0298,-0.0299,-0.0298,-0.03,-0.0301,-0.0296,-0.0279,-0.0278,-0.0271,-0.0262,-0.0258,-0.0249,-0.0244,-0.0241,-0.0241,-0.0204,-0.0196,-0.028,-0.028,-0.028,0,0,-0.0293,-0.029,-0.0293,-0.0292,-0.0295,-0.029,-0.0297,-0.0302,-0.0292,-0.0301,-0.0293,-0.0284,-0.0273,-0.0252,-0.0246,-0.0257,-0.0216,-0.0237,-0.0234,-0.0237,-0.02,-0.0192,-0.0185,-0.0278,-0.0278,-0.0279,0,0,-0.03,-0.0303,-0.0305,-0.0301,-0.0301,-0.0297,-0.0299,-0.0299,-0.0294,-0.0285,-0.0275,-0.0254,-0.0251,-0.0224,-0.0213,-0.0181,-0.0191,-0.0182,-0.0163,-0.0127,-0.012,-0.0113,-0.0106,-0.0099,-0.0181,-0.0181,-0.0181,0,-0.0306,-0.0307,-0.0306,-0.0302,-0.0299,-0.0298,-0.0295,-0.0286,-0.0282,-0.0272,-0.0279,-0.0238,-0.023,-0.0185,-0.0169,-0.017,-0.0165,-0.0186,-0.0121,-0.0115,-0.0109,-0.0102,-0.0095,-0.0179,-0.0179,-0.0179,-0.018,0,-0.0311,-0.031,-0.0312,-0.0301,-0.0296,-0.0296,-0.0279,-0.0272,-0.0268,-0.0254,-0.0219,-0.0197,-0.0175,-0.0159,-0.0156,-0.0104,-0.0121,-0.0119,-0.0137,-0.0099,-0.0094,-0.0087,-0.0176,-0.0177,-0.0178,-0.0178,0,0,-0.0324,-0.0316,-0.0316,-0.0312,-0.0296,-0.0294,-0.027,-0.0248,-0.0235,-0.0213,-0.0189,-0.014,-0.0135,-0.012,-0.0104,-0.0068,-0.0022,-0.008,-0.0079,-0.0076,0.0036,-0.0009,-0.0006,-0.0011,-0.0009,-0.0008,0.0019,0,-0.0328,-0.0325,-0.0314,-0.0305,-0.0302,-0.0285,-0.0264,-0.0241,-0.0222,-0.0197,-0.0155,-0.0129,-0.0117,-0.0107,-0.0065,-0.0034,-0.0002,-0.0031,0.0002,0.0002,-0.0045,0.0002,-0.0003,0.0024,0.0026,0.0027,0.0027,0,-0.0333,-0.0329,-0.0327,-0.0308,-0.0306,-0.0297,-0.0269,-0.0249,-0.0205,-0.0191,-0.015,-0.0127,-0.0068,-0.0068,0.0013,-0.001,0.0014,0.0039,0.0041,-0.0008,-0.0029,-0.002,0.0039,0.0039,0.0038,0.0037,0.0036,0,-0.0347,-0.0334,-0.0336,-0.033,-0.0309,-0.0303,-0.029,-0.0253,-0.0236,-0.019,-0.0177,-0.0108,-0.0082,-0.0024,0.0021,0.0019,0.0097,0.0101,0.0085,0.0081,0.0097,0.009,0.0161,0.0161,0.0161,0.0161,0.016,0,-0.035,-0.035,-0.0347,-0.0347,-0.0345,-0.0323,-0.0313,-0.0289,-0.0253,-0.0228,-0.0181,-0.015,-0.0069,-0.0019,0.0025,0.0068,0.0101,0.0094,0.0094,0.0108,0.0102,0.0101,0.0094,0.0162,0.0161,0.0161,0.0161,0,-0.0362,-0.0362,-0.0364,-0.0354,-0.0355,-0.0355,-0.0338,-0.0324,-0.0292,-0.0258,-0.0245,-0.0176,-0.0112,-0.0045,0.0041,0.0061,0.0113,0.0117,0.0109,0.0106,0.0071,0.0065,0.0113,0.0111,0.011,0.011,0.0109,0,-0.0368,-0.0372,-0.0379,-0.0385,-0.0385,-0.0384,-0.038,-0.0351,-0.0333,-0.0272,-0.0255,-0.0192,-0.0144,-0.0047,0.0009,0.0083,0.0089,0.0103,0.0112,0.0076,0.0071,0.0066,0.0062,0.0107,0.0107,0.0107,0.0107,0,-0.0374,-0.0384,-0.0387,-0.0401,-0.0408,-0.0407,-0.0399,-0.0387,-0.0342,-0.0321,-0.0245,-0.0189,-0.0128,-0.0052,-0.0008,0.0047,0.0093,0.0094,0.0096,0.0105,0.007,0.0065,0.0062,0.0103,0.0104,0.0104,0.0104,0,-0.0382,-0.039,-0.0399,-0.0408,-0.0419,-0.0413,-0.041,-0.0375,-0.0351,-0.0279,-0.0261,-0.018,-0.0132,-0.0073,-0.0027,0.0015,0.0029,0.0043,0.0049,0.0053,0.0022,-0.0032,-0.0022,0,0,0,0,0,-0.0383,-0.0389,-0.0399,-0.0406,-0.0416,-0.0419,-0.0409,-0.0398,-0.0364,-0.0308,-0.0276,-0.0212,-0.0131,-0.0097,-0.0059,-0.0064,0.0016,-0.0023,0.0031,0.0084,0.0088,0.0058,0,0,0,0,0,0,-0.0381,-0.0395,-0.0397,-0.04,-0.0403,-0.0408,-0.04,-0.0379,-0.0341,-0.03,-0.025,-0.022,-0.014,-0.0145,-0.006,-0.0051,-0.0017,0.0016,0.0016,0.0082,0.0086,0.0089,0.0059,0,0,0,0,0]}]]